Probability
0 0 0 0 0 0 0 0 0 0 0 0 0 0 0 0 0 0 0 0 0 0 0 0 0 0 0 0 0 0 0 0 0 0 0 0 0 0 0 0 0 0 0
0 0 0 0 0 0 0 0 0 0 0 0 0 0 0 0 0 0 0 0 0 0 0 0 0 0 0 0 0 0 0 0 0 0 0 0 0 0 0 0 0 0 0
0 0 0 0 0 0 0 0 0 0 0 0 0 0 0 0 0 0 0 0 0 0 0 0 0 0 0 0 0 0 0 0 0 0 0 0 0 0 0 0 0 0 0
0 0 0 0 0 0 0 0 0 0 0 0 0 0 0 0 0 0 0 0 0 0 0 0 0 0 0 0 0 0 0 0 0 0 0 0 0 0 0 0 0 0 0
0 0 0 0 0 0 0 0 0 0 0 0 0 0 0 0 0 0 0 0 0 0 0 0 0 0 0 0 0 0 0 0 0 0 0 0 0 0 0 0 0 0 0
0 0 0 0 0 0 0 0 0 0 0 0 0 0 0 0 0 0 0 0 0 0 0 0 0 0 0 0 0 0 0 0 0 0 0 0 0 0 0 0 0 0 0
0 0 0 0 0 0 0 0 0 0 0 0 0 0 0 0 0 0 0 0 0 0 0 0 0 0 0 0 0 0 0 0 0 0 0 0 0 0 0 0 0 0 0
0 0 0 0 0 0 0 0 0 0 0 0 0 0 0 0 0 0 0 0 0 0 0 0 0 0 0 0 0 0 0 0 0 0 0 0 0 0 0 0 0 0 0
0 0 0 0 0 0 0 0 0 0 0 0 0 0 0 0 0 0 0 0 0 0 0 0 0 0 0 0 0 0 0 0 0 0 0 0 0 0 0 0 0 0 0
0 0 0 0 0 0 0 0 0 0 0 0 0 0 0 0 0 0 0 0 0 0 0 0 0 0 0 0 0 0 0 0 0 0 0 0 0 0 0 0 0 0 0
0 0 0 0 0 0 0 0 0 0 0 0 0 0 0 0 0 0 0 0 0 0 0 0 0 0 0 0 0 0 0 0 0 0 0 0 0 0 0 0 0 0 0
0 0 0 0 0 0 0 0 0 0 0 0 0 0 0 0 0 0 0 0 0 0 0 0 0 0 0 0 0 0 0 0 0 0 0 0 0 0 0 0 0 0 0
0 0 0 0 0 0 0 0 0 0 0 0 0 0 0 0 0 0 0 0 0 0 0 0 0 0 0 0 0 0 0 0 0 0 0 0 0 0 0 0 0 0 0
0 0 0 0 0 0 0 0 0 0 0 0 0 0 0 0 0 0 0 0 0 0 0 0 0 0 0 0 0 0 0 0 0 0 0 0 0 0 0 0 0 0 0
0 0 0 0 0 0 0 0 0 0 0 0 0 0 0 0 0 0 0 0 0 0 0 0 0 0 0 0 0 0 0 0 0 0 0 0 0 0 0 0 0 0 0
0 0 0 0 0 0 0 0 0 0 0 0 0 0 0 0 0 0 0 0 0 0 0 0 0 0 0 0 0 0 0 0 0 0 0 0 0 0 0 0 0 0 0
0 0 0 0 0 0 0 0 0 0 0 0 0 0 0 0 0 0 0 0 0 0 0 0 0 0 0 0 0 0 0 0 0 0 0 0 0 0 0 0 0 0 0
0 0 0 0 0 0 0 0 0 0 0 0 0 0 0 0 0 0 0 0 0 0 0 0 0 0 0 0 0 0 0 0 0 0 0 0 0 0 0 0 0 0 0
0 0 0 0 0 0 0 0 0 0 0 0 0 0 0 0 0 0 0 0 0 0 0 0 0 0 0 0 0 0 0 0 0 0 0 0 0 0 0 0 0 0 0
0 0 0 0 0 0 0 0 0 0 0 0 0 0 0 0 0 0 0 0 0 0 0 0 0 0 0 0 0 0 0 0 0 0 0 0 0 0 0 0 0 0 0
0 0 0 0 0 0 0 0 0 0 0 0 0 0 0 0 0 0 0 0 0 0 0 0 0 0 0 0 0 0 0 0 0 0 0 0 0 0 0 0 0 0 0
0 0 0 0 0 0 0 0 0 0 0 0 0 0 0 0 0 0 0 0 0 0 0 0 0 0 0 0 0 0 0 0 0 0 0 0 0 0 0 0 0 0 0
0 0 0 0 0 0 0 0 0 0 0 0 0 0 0 0 0 0 0 0 0 0 0 0 0 0 0 0 0 0 0 0 0 0 0 0 0 0 0 0 0 0 0
0 0 0 0 0 0 0 0 0 0 0 0 0 0 0 0 0 0 0 0 0 0 0 0 0 0 0 0 0 0 0 0 0 0 0 0 0 0 0 0 0 0 0
0 0 0 0 0 0 0 0 0 0 0 0 0 0 0 0 0 0 0 0 0 0 0 0 0 0 0 0 0 0 0 0 0 0 0 0 0 0 0 0 0 0 0
0 0 0 0 0 0 0 0 0 0 0 0 0 0 0 0 0 0 0 0 0 0 0 0 0 0 0 0 0 0 0 0 0 0 0 0 0 0 0 0 0 0 0
Height
5591 5594 5597 5601 5604 5608 5611 5614 5617 5620 5623 5625 5628 5630 5633 5636 5639 5641 5645 5648 5651 5654 5657 5660 5662 5665 5667 5670 5671 5673 5674 5676 5678 5680 5680 5680 5681 5681 5682 5682 5681 5681 5681
5578 5581 5584 5587 5590 5594 5597 5601 5603 5606 5609 5612 5614 5617 5619 5622 5625 5628 5631 5634 5637 5640 5643 5646 5649 5651 5653 5656 5657 5659 5661 5662 5664 5665 5666 5666 5667 5667 5667 5667 5667 5667 5667
5564 5567 5571 5574 5577 5580 5583 5586 5589 5593 5595 5598 5601 5603 5606 5608 5611 5614 5617 5620 5623 5626 5629 5631 5634 5637 5639 5641 5643 5644 5646 5647 5648 5650 5651 5652 5652 5652 5653 5653 5652 5652 5652
5551 5554 5557 5560 5563 5566 5569 5572 5575 5578 5581 5584 5587 5589 5592 5595 5597 5600 5603 5606 5609 5612 5614 5617 5619 5622 5624 5626 5628 5629 5631 5632 5633 5635 5636 5637 5637 5637 5637 5637 5637 5637 5636
5539 5542 5544 5547 5549 5552 5555 5558 5561 5564 5567 5570 5573 5575 5578 5581 5584 5586 5589 5592 5594 5597 5600 5602 5605 5607 5609 5611 5612 5614 5615 5617 5618 5619 5620 5621 5621 5621 5621 5621 5621 5621 5621
5527 5529 5531 5534 5536 5539 5541 5544 5547 5549 5552 5555 5558 5561 5564 5567 5570 5572 5575 5577 5580 5582 5585 5587 5590 5592 5594 5595 5597 5598 5600 5601 5602 5603 5604 5605 5605 5605 5605 5604 5604 5605 5605
5514 5516 5518 5521 5523 5525 5527 5530 5533 5536 5538 5541 5544 5547 5550 5553 5555 5558 5560 5563 5565 5567 5570 5572 5574 5576 5578 5580 5581 5582 5584 5584 5586 5587 5588 5588 5588 5589 5588 5588 5587 5586 5587
5501 5503 5505 5507 5509 5511 5514 5516 5519 5522 5524 5527 5529 5532 5535 5538 5540 5543 5545 5547 5550 5552 5555 5557 5559 5561 5562 5564 5565 5566 5567 5568 5569 5570 5571 5572 5571 5570 5570 5570 5569 5569 5569
5489 5490 5492 5494 5496 5498 5500 5503 5505 5508 5510 5512 5515 5517 5520 5522 5525 5527 5529 5532 5534 5537 5539 5541 5543 5544 5546 5547 5549 5550 5551 5552 5552 5552 5553 5553 5553 5553 5552 5552 5552 5552 5552
5477 5479 5480 5482 5484 5486 5488 5490 5491 5493 5496 5498 5500 5502 5504 5507 5509 5511 5513 5516 5519 5521 5523 5525 5527 5528 5529 5530 5531 5533 5534 5535 5535 5536 5536 5536 5536 5536 5535 5535 5534 5533 5533
5466 5467 5468 5470 5471 5473 5475 5476 5478 5480 5482 5483 5486 5488 5490 5492 5494 5496 5498 5500 5502 5504 5506 5508 5510 5511 5512 5513 5514 5516 5517 5518 5518 5519 5520 5520 5519 5519 5518 5517 5516 5515 5514
5454 5455 5456 5458 5459 5461 5462 5463 5465 5466 5468 5469 5471 5473 5475 5478 5480 5481 5483 5485 5486 5488 5490 5492 5493 5494 5496 5497 5498 5499 5499 5500 5501 5502 5503 5503 5503 5502 5501 5500 5498 5497 5496
5443 5443 5444 5445 5447 5448 5449 5451 5452 5453 5454 5456 5458 5460 5462 5463 5465 5466 5468 5469 5471 5472 5474 5476 5477 5478 5479 5480 5481 5482 5482 5483 5484 5485 5485 5485 5485 5484 5483 5483 5481 5480 5480
5431 5432 5433 5434 5435 5436 5437 5438 5439 5441 5442 5443 5445 5446 5448 5450 5451 5453 5454 5455 5456 5457 5458 5460 5461 5462 5463 5464 5465 5466 5466 5466 5467 5467 5467 5467 5467 5467 5466 5465 5464 5463 5463
5420 5421 5421 5422 5423 5424 5425 5426 5427 5428 5429 5431 5432 5433 5435 5437 5438 5439 5440 5441 5442 5443 5443 5444 5446 5447 5448 5448 5449 5449 5450 5450 5450 5450 5450 5450 5449 5449 5448 5447 5446 5446 5445
5409 5410 5410 5411 5412 5412 5413 5414 5415 5416 5417 5418 5419 5420 5422 5423 5424 5425 5426 5427 5428 5428 5429 5430 5431 5432 5432 5433 5433 5433 5433 5433 5433 5433 5433 5432 5432 5431 5431 5430 5429 5428 5428
5399 5399 5399 5400 5400 5401 5401 5402 5403 5404 5405 5406 5406 5408 5409 5410 5411 5412 5413 5413 5414 5414 5415 5416 5416 5417 5417 5417 5418 5418 5418 5417 5417 5417 5417 5416 5415 5414 5414 5413 5412 5411 5411
5388 5388 5388 5389 5389 5390 5390 5391 5391 5392 5393 5394 5395 5395 5396 5398 5399 5399 5400 5400 5401 5401 5402 5402 5403 5403 5403 5403 5403 5403 5402 5402 5402 5401 5401 5400 5400 5399 5398 5397 5396 5395 5395
5377 5377 5378 5378 5378 5378 5379 5379 5380 5381 5381 5382 5383 5384 5384 5385 5386 5386 5387 5388 5388 5389 5389 5389 5389 5389 5389 5389 5389 5388 5388 5387 5387 5387 5386 5386 5385 5384 5383 5382 5381 5380 5378
5367 5367 5367 5367 5367 5367 5368 5368 5369 5370 5370 5370 5371 5372 5372 5373 5373 5374 5374 5375 5375 5375 5375 5376 5376 5376 5375 5375 5375 5374 5374 5373 5373 5372 5372 5371 5370 5370 5369 5368 5366 5365 5364
5357 5357 5357 5356 5356 5357 5357 5357 5358 5358 5359 5359 5359 5360 5360 5361 5361 5362 5362 5362 5363 5363 5363 5363 5362 5362 5362 5362 5361 5361 5360 5359 5359 5358 5358 5357 5356 5356 5355 5353 5352 5351 5349
5347 5346 5346 5346 5346 5346 5346 5346 5346 5347 5347 5348 5348 5348 5349 5349 5350 5350 5350 5350 5350 5350 5350 5350 5350 5349 5349 5349 5348 5347 5347 5346 5345 5344 5344 5343 5343 5342 5341 5339 5338 5337 5335
5337 5336 5336 5336 5336 5336 5336 5336 5336 5336 5336 5337 5337 5337 5338 5338 5339 5339 5339 5339 5339 5338 5338 5338 5337 5337 5336 5335 5335 5334 5334 5333 5332 5331 5331 5330 5329 5328 5327 5326 5325 5323 5321
5328 5327 5326 5326 5326 5326 5326 5326 5326 5326 5326 5326 5327 5327 5327 5328 5328 5328 5328 5327 5327 5327 5326 5326 5325 5325 5324 5323 5322 5321 5320 5319 5318 5318 5317 5317 5316 5315 5314 5313 5311 5310 5308
5318 5318 5317 5317 5316 5316 5316 5316 5316 5316 5316 5316 5317 5317 5317 5317 5317 5317 5317 5316 5316 5315 5315 5314 5313 5313 5312 5311 5310 5309 5308 5307 5306 5305 5305 5304 5304 5302 5301 5300 5299 5297 5296
5310 5309 5308 5308 5307 5307 5307 5307 5307 5307 5307 5307 5307 5307 5307 5307 5307 5306 5306 5305 5305 5304 5303 5302 5302 5301 5300 5299 5298 5297 5296 5295 5294 5293 5293 5292 5292 5291 5289 5288 5287 5285 5284
Wind_Speed
49 50 51 52 53 53 54 53 53 53 53 53 53 54 53 53 54 54 54 53 54 54 55 55 54 54 53 52 53 52 52 52 52 51 52 52 51 51 51 51 51 50 50
48 49 50 51 52 53 53 53 53 53 54 53 53 54 54 54 53 53 53 54 54 55 56 56 56 56 55 55 55 56 55 55 54 54 53 53 53 54 54 53 53 53 53
47 48 49 50 52 53 53 53 53 53 53 54 54 54 54 54 54 53 53 54 55 55 55 55 56 57 57 57 57 57 57 57 57 56 56 56 56 56 55 55 55 55 55
46 47 48 49 51 52 53 54 53 53 53 53 53 54 54 54 54 54 54 54 55 56 56 56 56 57 57 58 58 58 58 58 57 58 58 58 58 57 57 57 56 56 56
46 47 47 48 49 51 52 53 53 53 54 53 53 53 53 53 54 55 55 55 55 55 56 57 57 57 57 58 58 58 59 59 59 59 59 59 59 59 59 58 58 58 59
46 47 47 48 49 50 51 52 53 53 54 54 53 53 53 54 54 54 55 55 56 55 56 57 57 57 58 57 58 58 59 60 60 60 60 61 61 61 61 61 61 60 61
45 46 47 48 48 49 50 51 52 53 54 54 54 54 54 54 54 54 55 55 56 56 57 58 58 58 58 58 59 59 60 60 60 61 62 62 62 63 63 63 63 62 62
44 45 46 46 47 48 49 49 50 52 53 53 54 54 55 56 57 56 56 57 57 57 57 57 58 59 59 59 60 61 61 60 61 62 62 62 62 63 63 63 63 63 62
42 43 44 45 45 46 47 48 49 51 52 53 53 54 54 56 57 57 57 57 57 57 57 58 59 59 59 60 61 61 61 61 61 62 61 61 61 62 62 62 62 63 62
40 42 43 43 44 44 46 47 48 49 51 52 53 53 53 54 55 56 57 57 57 58 58 58 59 59 59 60 60 59 59 59 60 60 60 60 60 59 60 61 62 63 63
40 41 42 43 43 44 45 46 47 48 49 51 52 52 53 53 53 54 55 56 56 57 57 58 58 58 58 58 58 58 59 59 59 59 59 59 58 58 58 59 60 61 62
40 41 42 43 43 44 44 45 45 46 47 48 49 49 50 51 51 52 53 53 54 55 54 55 55 56 57 57 57 57 58 59 59 59 59 59 59 59 59 59 59 60 60
38 38 39 40 41 42 42 43 44 44 45 45 46 47 48 49 49 49 50 51 52 53 53 53 54 55 56 57 57 57 58 58 58 59 59 59 59 59 59 59 59 59 59
36 37 38 38 39 39 40 40 41 42 43 43 44 45 45 46 46 47 48 49 50 51 52 53 53 54 55 55 56 57 57 57 58 58 58 59 59 59 59 59 59 58 58
36 37 38 38 39 40 40 40 40 40 40 42 43 43 43 44 45 46 46 47 48 49 50 51 51 52 53 53 54 55 56 56 57 57 57 58 58 58 58 58 58 57 57
36 36 37 38 39 39 40 40 41 41 41 41 42 43 43 43 44 45 45 45 46 47 48 48 49 49 50 50 51 52 53 54 55 56 56 57 57 57 57 57 57 57 56
35 35 35 36 36 37 38 39 39 40 40 40 41 41 42 42 43 43 44 44 45 45 45 45 46 46 47 48 49 49 51 52 53 54 54 54 55 55 55 55 55 55 55
33 34 35 35 35 35 36 36 37 37 37 37 38 39 40 41 41 41 42 42 43 43 44 44 44 44 45 45 46 47 49 50 51 51 51 51 51 51 51 52 53 53 53
32 33 34 34 34 35 35 35 36 36 36 37 37 38 38 38 39 40 41 41 42 42 43 42 42 43 43 44 44 45 46 47 48 49 49 49 49 49 49 49 50 51 52
32 32 33 33 34 34 35 35 36 36 36 36 36 37 37 38 38 39 39 40 40 40 41 41 42 42 42 42 43 43 44 45 46 46 46 46 47 47 47 47 48 49 49
31 31 32 32 33 33 34 34 35 35 35 35 35 35 35 36 36 37 38 39 40 40 41 41 41 41 41 42 42 43 43 44 44 44 44 45 45 45 45 46 47 47 48
30 30 31 31 31 32 32 32 32 33 34 34 34 34 34 35 35 35 36 36 37 38 39 39 39 40 40 41 42 42 43 43 43 43 43 44 44 45 45 45 46 46 47
28 29 29 29 30 30 31 31 32 32 32 32 33 33 34 34 35 35 36 36 36 36 36 37 37 37 38 39 40 41 41 41 42 42 42 42 43 43 43 44 44 44 45
27 27 27 28 28 29 30 30 30 31 31 32 32 33 33 34 34 34 34 35 35 35 36 36 36 36 37 37 38 38 39 39 39 39 40 40 40 41 41 41 41 41 41
25 25 25 26 26 27 28 28 29 29 30 30 31 31 31 31 32 32 33 33 34 34 35 35 36 36 36 37 37 37 37 37 37 37 37 38 38 38 38 38 38 39 39
25 25 25 25 25 25 26 26 27 27 28 28 29 30 30 31 31 32 32 33 33 34 35 35 36 36 36 36 36 36 36 35 35 35 35 35 36 36 36 36 36 36 36
Wind_Direction
246 246 247 245 246 246 247 248 250 250 250 252 252 252 252 252 252 251 250 250 251 252 252 253 254 255 256 257 257 258 259 260 260 260 261 263 264 265 266 266 268 268 269
247 246 246 245 246 246 247 249 250 250 250 250 250 251 251 251 251 251 250 250 251 252 253 253 254 255 256 257 258 259 260 261 261 262 262 263 265 265 266 267 268 268 268
247 247 247 247 247 247 248 249 249 249 249 250 251 250 250 250 250 251 251 251 251 252 253 254 255 256 256 257 259 260 261 262 262 263 264 264 265 266 266 267 268 269 269
248 248 247 248 248 248 249 249 249 249 249 250 250 250 250 250 250 251 251 251 251 251 253 255 256 256 257 258 259 260 261 262 263 264 265 265 266 266 267 267 268 269 268
249 248 249 249 249 249 249 250 250 249 249 249 249 249 249 249 250 251 252 252 252 252 253 254 255 256 257 258 259 260 262 262 262 263 264 265 266 267 267 267 268 269 268
249 248 249 249 250 250 250 250 249 249 250 250 250 249 249 249 250 251 253 253 253 254 254 254 255 256 257 258 259 261 262 262 262 263 264 265 266 267 268 268 269 269 268
250 250 250 251 251 250 250 250 250 250 250 251 251 250 250 251 252 253 253 254 254 254 255 256 256 257 258 260 261 262 263 263 263 264 265 266 267 267 268 268 269 270 270
251 251 252 252 251 251 250 251 251 252 252 252 252 252 252 252 253 254 255 255 256 256 256 257 258 259 260 261 262 263 264 264 265 265 266 267 268 268 268 269 270 270 271
252 253 253 252 252 252 251 252 253 253 253 253 254 254 255 255 255 256 256 256 257 257 257 258 259 260 261 262 263 263 264 265 266 266 267 267 268 268 268 269 270 270 271
255 254 254 253 253 254 254 254 255 255 255 255 256 256 256 256 257 257 257 258 259 259 259 259 260 261 261 261 262 262 263 263 264 265 266 267 268 268 269 270 270 271 271
256 255 254 253 254 255 256 256 257 257 257 257 256 257 257 257 257 258 258 259 260 261 261 261 260 260 261 261 261 261 262 263 263 265 266 267 268 269 270 271 271 272 272
257 255 254 254 255 256 256 257 257 258 258 257 257 257 257 258 259 259 259 260 261 261 261 261 260 260 260 261 261 261 262 262 263 264 265 266 268 269 269 271 272 273 273
258 257 256 256 256 256 256 257 257 258 257 257 256 257 258 259 259 260 260 260 261 261 261 261 262 261 261 262 262 262 263 264 264 265 265 266 267 268 269 271 272 273 273
259 258 257 257 257 256 257 257 258 258 258 257 258 258 258 258 258 259 260 261 262 262 263 263 263 263 263 263 263 264 264 265 265 266 267 267 268 269 270 271 271 272 273
261 260 259 258 257 257 257 258 258 258 259 258 258 258 258 258 259 259 260 261 262 263 263 263 263 263 263 264 264 265 265 265 266 267 268 268 269 269 269 270 270 271 272
260 260 260 259 258 257 257 258 259 259 259 259 258 257 257 257 257 258 260 261 262 263 263 263 263 263 264 265 265 265 266 266 267 268 268 269 269 269 269 269 270 271 272
261 260 260 259 259 259 260 259 259 259 260 259 259 258 257 258 258 259 260 260 261 262 262 263 263 264 265 265 265 266 266 267 267 268 269 269 269 269 270 270 270 271 271
262 261 261 261 261 260 260 259 259 258 258 258 258 259 259 258 259 259 260 261 262 263 263 263 264 265 265 266 266 267 267 267 268 268 268 269 270 270 270 271 271 271 271
263 263 262 262 261 261 260 259 259 259 259 258 258 259 259 259 259 259 260 261 262 263 264 264 265 265 266 267 267 268 268 268 268 268 269 269 270 271 272 272 272 272 272
264 264 263 263 263 262 261 260 259 259 259 260 260 260 260 259 259 260 261 262 263 264 264 265 266 267 268 268 269 269 270 270 270 270 270 271 271 272 273 274 274 274 273
266 265 265 264 264 263 262 261 260 259 260 260 260 260 260 260 260 261 262 263 264 265 266 267 268 268 269 270 270 271 272 272 272 271 271 272 272 273 274 275 275 275 274
266 265 265 264 264 263 262 262 261 261 260 259 259 259 260 260 261 262 263 264 265 266 267 268 268 269 270 271 272 272 273 273 272 272 272 272 273 274 275 276 276 276 276
268 267 266 265 264 263 262 262 262 261 260 259 259 259 260 260 262 263 264 265 266 268 268 269 270 271 272 273 273 274 274 274 273 272 272 272 273 274 275 275 276 277 277
271 269 268 266 265 264 263 262 262 261 260 259 260 261 261 262 263 264 265 266 267 268 269 270 271 272 273 274 274 274 274 274 273 272 271 272 274 275 275 276 277 278 279
272 271 269 268 267 266 264 263 263 263 262 262 262 262 262 262 264 265 266 268 269 270 271 271 272 273 273 274 274 274 274 274 274 273 273 274 275 275 276 276 277 278 279
273 272 270 269 268 267 266 265 265 264 263 263 262 263 263 264 266 267 268 270 271 272 272 273 273 273 274 274 274 274 274 274 274 274 274 275 275 275 276 277 277 278 279